TimeEST,TemperatureF,Dew PointF,Humidity,Sea Level PressureIn,VisibilityMPH,Wind Direction,Wind SpeedMPH,Gust SpeedMPH,PrecipitationIn,Events,Conditions,WindDirDegrees,DateUTC
12:53 AM,28.9,21.0,72,30.31,10.0,SW,6.9,-,N/A,,Clear,230,2013-01-05 05:53:00
1:53 AM,28.0,21.0,75,30.34,10.0,SW,6.9,-,N/A,,Clear,220,2013-01-05 06:53:00
2:53 AM,28.0,21.0,75,30.35,10.0,SSW,4.6,-,N/A,,Clear,210,2013-01-05 07:53:00
3:53 AM,27.0,19.9,75,30.37,10.0,SSW,5.8,-,N/A,,Clear,210,2013-01-05 08:53:00
4:53 AM,27.0,19.9,75,30.38,10.0,SSW,4.6,-,N/A,,Partly Cloudy,210,2013-01-05 09:53:00
5:05 AM,26.6,19.4,74,30.34,10.0,SSW,4.6,-,N/A,,Mostly Cloudy,210,2013-01-05 10:05:00
5:53 AM,27.0,19.9,75,30.39,10.0,South,3.5,-,N/A,,Overcast,190,2013-01-05 10:53:00
6:53 AM,27.0,19.9,75,30.40,10.0,South,4.6,-,N/A,,Overcast,190,2013-01-05 11:53:00
7:50 AM,26.6,19.4,74,30.37,10.0,SSW,4.6,-,N/A,,Scattered Clouds,200,2013-01-05 12:50:00
7:53 AM,27.0,19.9,75,30.42,10.0,SSW,4.6,-,N/A,,Scattered Clouds,200,2013-01-05 12:53:00
8:22 AM,26.6,21.2,80,30.38,10.0,SSW,3.5,-,N/A,,Scattered Clouds,200,2013-01-05 13:22:00
8:53 AM,28.0,21.0,75,30.42,10.0,Variable,3.5,-,N/A,,Clear,0,2013-01-05 13:53:00
9:53 AM,30.9,21.9,69,30.42,10.0,SW,3.5,-,N/A,,Clear,220,2013-01-05 14:53:00
10:53 AM,32.0,21.9,66,30.41,10.0,Variable,5.8,-,N/A,,Clear,0,2013-01-05 15:53:00
11:53 AM,34.0,23.0,64,30.38,10.0,South,8.1,-,N/A,,Partly Cloudy,190,2013-01-05 16:53:00
12:53 PM,35.1,21.9,59,30.33,10.0,Variable,5.8,-,N/A,,Clear,0,2013-01-05 17:53:00
1:53 PM,37.0,21.9,54,30.29,10.0,SSW,6.9,-,N/A,,Clear,200,2013-01-05 18:53:00
2:53 PM,37.9,21.9,53,30.30,10.0,SW,8.1,-,N/A,,Clear,230,2013-01-05 19:53:00
3:53 PM,37.9,21.9,53,30.27,10.0,Variable,5.8,-,N/A,,Clear,0,2013-01-05 20:53:00
4:53 PM,37.0,21.9,54,30.27,10.0,SSW,3.5,-,N/A,,Clear,210,2013-01-05 21:53:00
5:53 PM,35.1,23.0,61,30.26,10.0,Calm,Calm,-,N/A,,Partly Cloudy,0,2013-01-05 22:53:00
6:53 PM,33.1,24.1,70,30.27,10.0,Calm,Calm,-,N/A,,Clear,0,2013-01-05 23:53:00
7:53 PM,34.0,24.1,67,30.24,10.0,Calm,Calm,-,N/A,,Mostly Cloudy,0,2013-01-06 00:53:00
8:53 PM,32.0,25.0,75,30.25,10.0,South,4.6,-,N/A,,Overcast,170,2013-01-06 01:53:00
9:53 PM,34.0,24.1,67,30.21,10.0,South,5.8,-,N/A,,Overcast,180,2013-01-06 02:53:00
10:53 PM,36.0,21.9,57,30.21,10.0,SSW,4.6,-,N/A,,Overcast,210,2013-01-06 03:53:00
11:53 PM,35.1,23.0,61,30.19,10.0,SSW,4.6,-,N/A,,Overcast,200,2013-01-06 04:53:00